[Iaude] MPEC G121: 2023 YE6 [a=2.84,e=0.57,i=18.2,H=18.8]
    mpec at cfa.harvard.edu 
    mpec at cfa.harvard.edu
       
    Tue Apr  9 10:48:46 EDT 2024
    
    
  
M.P.E.C. 2024-G121                                Issued 2024 April 9, 14:47 UT
     The Minor Planet Electronic Circulars contain information on unusual
         minor planets, routine data on comets and natural satellites,
         and occasional editorial announcements.  They are published
    on behalf of Division F of the International Astronomical Union by the
          Minor Planet Center, Smithsonian Astrophysical Observatory,
                          Cambridge, MA 02138, U.S.A.
			  
             Prepared using the Tamkin Foundation Computer Network
                              MPC at CFA.HARVARD.EDU
            URL https://www.minorplanetcenter.net/    ISSN 1523-6714
                                    2023 YE6                                    
Observations:
     K23Y06E*1C2023 12 18.27615507 39 56.509-00 21 58.82         21.02GVEG121G96
     K23Y06E 1C2023 12 18.28130107 39 56.326-00 21 58.97         21.18GVEG121G96
     K23Y06E 1C2023 12 18.28645007 39 56.200-00 21 59.22         21.44GVEG121G96
     K23Y06E 1C2023 12 18.29158907 39 56.027-00 21 59.72         21.77GVEG121G96
     K23Y06E 1C2024 04 05.13556007 20 30.797+29 20 51.68         20.16GVEG121G96
     K23Y06E 1C2024 04 05.14306207 20 31.812+29 20 58.81         20.57GVEG121G96
     K23Y06E 1C2024 04 05.14838707 20 32.500+29 21 03.85         20.58GVEG121G96
     K23Y06E  C2024 04 05.17310107 20 35.797+29 21 27.54         20.68GVEG121I52
     K23Y06E  C2024 04 05.17553207 20 36.118+29 21 29.59         20.33GVEG121I52
     K23Y06E  C2024 04 05.17797207 20 36.431+29 21 31.82         20.96GVEG121I52
     K23Y06E  C2024 04 05.17874407 20 36.564+29 21 32.72         21.25GVEG121I52
     K23Y06E  C2024 04 05.18351007 20 37.153+29 21 36.82         20.5 GVEG121H01
     K23Y06E  C2024 04 05.18820007 20 37.779+29 21 41.22         20.6 GVEG121H01
     K23Y06E  C2024 04 05.20181107 20 39.591+29 21 54.05         20.4 GVEG121H01
     K23Y06E  C2024 04 05.20554607 20 40.099+29 21 57.61         20.4 GVEG121H01
     K23Y06E KC2024 04 05.23001707 20 43.400+29 22 21.11         20.23GVEG121I52
     K23Y06E KC2024 04 05.23419207 20 43.940+29 22 24.71         21.15GVEG121I52
     K23Y06E KC2024 04 05.23834407 20 44.520+29 22 28.96         21.20GVEG121I52
     K23Y06E KC2024 04 05.24251107 20 45.006+29 22 32.30         20.66GVEG121I52
     K23Y06E KC2024 04 06.07148207 22 39.59 +29 35 44.6          20.7 GVEG121H21
     K23Y06E KC2024 04 06.07717507 22 40.37 +29 35 49.8          20.8 GVEG121H21
     K23Y06E KC2024 04 06.08002007 22 40.76 +29 35 52.5          20.7 GVEG121H21
     K23Y06E KC2024 04 06.08305307 22 41.17 +29 35 55.4          20.7 GVEG121H21
     K23Y06E KC2024 04 06.80305307 24 22.25 +29 47 10.8          20.7 GVEG121L01
     K23Y06E KC2024 04 06.81705607 24 24.19 +29 47 23.4          20.8 GVEG121L01
     K23Y06E KC2024 04 07.07842107 25 01.32 +29 51 28.1          20.9 GVEG121H21
     K23Y06E KC2024 04 07.08695807 25 02.51 +29 51 36.0          20.6 GVEG121H21
     K23Y06E KC2024 04 07.09122607 25 03.10 +29 51 39.7          20.6 GVEG121H21
     K23Y06E KC2024 04 07.09691507 25 03.89 +29 51 44.9          20.8 GVEG121H21
     K23Y06E KC2024 04 07.11793707 25 07.018+29 52 06.24         20.59GVEG121I52
     K23Y06E KC2024 04 07.12095607 25 07.453+29 52 08.98         20.62GVEG121I52
     K23Y06E KC2024 04 07.12364207 25 07.828+29 52 11.21         20.50GVEG121I52
     K23Y06E KC2024 04 07.12634107 25 08.188+29 52 13.51         20.40GVEG121I52
     K23Y06E  C2024 04 08.24834607 27 50.263+30 09 22.91         21.04wXEG121F51
     K23Y06E  C2024 04 08.26113507 27 52.086+30 09 34.16         20.93wXEG121F51
     K23Y06E KC2024 04 09.15255107 30 03.708+30 22 49.12               VEG121I52
     K23Y06E KC2024 04 09.15487007 30 04.046+30 22 51.20               VEG121I52
     K23Y06E KC2024 04 09.15698407 30 04.435+30 22 53.76         20.87GVEG121I52
     K23Y06E KC2024 04 09.15910007 30 04.763+30 22 55.45         20.33GVEG121I52
Observer details:
F51 Pan-STARRS 1, Haleakala.  Observers J. Herman, T. Lowe, P. Minguez, A.
    Schultz, I. Smith.  Measurers K. Chambers, T. de Boer, J. Fairlamb, H.
    Gao, M. Huber, C.-C. Lin, E. Magnier, Y. Ramanjooloo, R. Wainscoat, R.
    Weryk.  1.8-m Ritchey-Chretien + CCD.
G96 Mt. Lemmon Survey.  Observers A. R. Gibbs, G. J. Leonard.  Measurers E. C.
    Beshore, D. Fay, J. B. Fazekas, D. C. Fuls, A. R. Gibbs, A. D. Grauer, H.
    Groeller, J. K. Hogan, R. A. Kowalski, S. M. Larson, G. J. Leonard, D.
    Rankin, R. L. Seaman, F. C. Shelly, K. W. Wierzchos, T. Beuden, V. F.
    Carvajal.  1.5-m reflector + 10K CCD.
H01 Magdalena Ridge Observatory, Socorro.  Observers W. H. Ryan, E. V. Ryan.
    Measurer W. H. Ryan.  2.4-m f/8.9 Ritchey-Chretien + CCD.
H21 Astronomical Research Observatory, Westfield.  Observer R. Holmes.
    Measurers T. Linder, R. Holmes, L. Horn.  0.81-m f/4.0 astrograph + CCD.
I52 Steward Observatory, Mt. Lemmon Station.  Observers H. Groeller, J. K.
    Hogan, G. J. Leonard.  Measurers T. Beuden, V. F. Carvajal, D. Fay, J. B.
    Fazekas, D. C. Fuls, A. R. Gibbs, A. D. Grauer, H. Groeller, J. K. Hogan,
    R. A. Kowalski, S. M. Larson, G. J. Leonard, D. Rankin, R. L. Seaman, F.
    C. Shelly, K. W. Wierzchos.  1.0-m prime focus + CCD.
L01 Visnjan Observatory, Tican.  Observers K. Korlevic, G. D'Agostino, E.
    Pettarin, L. Poropat.  Measurer E. Pettarin.  1.0-m f/2.9 reflector + CCD.
Orbital elements:
2023 YE6                                                 Earth MOID = 0.3193 AU
Epoch 2024 Mar. 31.0 TT = JDT 2460400.5                 Veres                   
M 349.68888              (2000.0)            P               Q                  
n   0.20542299     Peri.   53.43662     -0.93632804     +0.29582102             
a   2.8447014      Node   142.69159     -0.32529921     -0.93361144             
e   0.5701637      Incl.   18.18483     +0.13217501     -0.20213760             
P   4.80           H   18.87          G   0.15           U   5                  
Residuals in seconds of arc
231218 G96  0.1+  0.1+    240405 H01  0.0   0.0     240407 H21  0.1-  0.2+
231218 G96  0.3-  0.1+    240405 H01  0.2+  0.0     240407 H21  0.1-  0.0
231218 G96  0.2+  0.1-    240405 I52  0.3+  0.0     240407 H21  0.1-  0.0
231218 G96  0.0   0.5-    240405 I52  0.1+  0.3-    240407 I52  0.2-  0.2+
240405 G96  0.3-  0.0     240405 I52  0.4+  0.1+    240407 I52  0.0   0.2+
240405 G96  0.0   0.0     240405 I52  0.6-  0.5-    240407 I52  0.1+  0.1-
240405 G96  0.2-  0.0     240406 H21  0.1-  0.0     240407 I52  0.1-  0.2-
240405 I52  0.1+  0.2+    240406 H21  0.1+  0.1-    240408 F51  0.0   0.0
240405 I52  0.1+  0.1-    240406 H21  0.1+  0.1-    240408 F51  0.1+  0.2-
240405 I52  0.1-  0.2-    240406 H21  0.1+  0.0     240409 I52 (1.0-  0.8-)
240405 I52  0.3+  0.0     240406 L01  0.3+  0.0     240409 I52 (0.9-  0.8-)
240405 H01  0.1+  0.0     240406 L01  0.3+  0.3-    240409 I52  0.1+  0.1-
240405 H01  0.1+  0.0     240407 H21  0.1-  0.2+    240409 I52  0.4+  0.2-
Ephemeris:
2023 YE6                 a,e,i = 2.84, 0.57, 18                  q = 1.2228
Date    TT    R. A. (2000) Decl.     Delta      r    Elong.  Phase     V
2024 03 10    06 40 53.6 +20 53 48   0.7931  1.4674   110.0    39.5    20.8
...
2024 03 25    06 58 45.8 +26 04 18   0.8203  1.3835    98.7    45.4    20.9
...
2024 04 02    07 13 40.9 +28 29 00   0.8348  1.3440    93.8    47.9    20.9
...
2024 04 08    07 27 14.1 +30 05 36   0.8452  1.3173    90.6    49.5    20.9
2024 04 09    07 29 41.3 +30 20 35   0.8468  1.3131    90.1    49.7    21.0
2024 04 10    07 32 11.6 +30 35 14   0.8485  1.3090    89.7    49.9    21.0
...
2024 04 16    07 48 20.6 +31 55 40   0.8578  1.2861    87.0    51.2    21.0
...
2024 04 24    08 12 40.6 +33 20 52   0.8691  1.2606    84.2    52.5    21.0
...
2024 05 09    09 05 42.5 +34 39 01   0.8879  1.2298    80.5    54.1    21.0
M. P. C. Staff               (C) Copyright 2024 MPC           M.P.E.C. 2024-G121
    
    
More information about the Iaude
mailing list